This demonstration page uses our WeatherBlox Daily Observations layout. Learn more.

Left ArrowRight Arrow

Hourly Observations for August 27, 2017

Temp ( °F °C ) Dew Point ( °F °C ) Humidity (%) Winds ( mph kmh ) Pressure ( in mb ) Visibility ( mi km ) Precip ( " mm )
12:51 am 00:51 Clear with Light Rain 71 21.7 64 17.8 79 79 undefined N/A 29.92 1013 10 16.0934 0 0.0254
1:51 am 01:51 Clear 69 20.6 64 17.8 84 84 E 3 6 29.91 1013 10 16.0934 0 0.0254
2:51 am 02:51 Clear with Light Rain 67 19.4 63 17.2 87 87 Calm 29.92 1013 10 16.0934 0 0.0254
3:51 am 03:51 Clear 68 20 62 16.7 81 81 ESE 6 9 29.92 1013 10 16.0934 0 0.0254
4:51 am 04:51 Clear 70 21.1 62 16.7 76 76 SSE 7 11 29.95 1014 10 16.0934 0 0
5:51 am 05:51 Sunny 72 22.2 59 15 64 64 SE 9 15 29.96 1015 10 16.0934 0 0
6:51 am 06:51 Sunny 72 22.2 61 16.1 68 68 SSE 9 15 29.98 1015 10 16.0934 0 0
7:51 am 07:51 Sunny 77 25 61 16.1 58 58 SSE 9 15 29.98 1015 10 16.0934 0 0
8:51 am 08:51 Sunny 82 27.8 61 16.1 49 49 SE 9 15 29.97 1015 10 16.0934 0 0
9:51 am 09:51 Sunny 86 30 62 16.7 45 45 VRB 6 9 29.96 1015 10 16.0934 0 0
10:51 am 10:51 Sunny 88 31.1 61 16.1 40 40 VRB 6 9 29.94 1014 10 16.0934 0 0
11:51 am 11:51 Sunny 91 32.8 61 16.1 37 37 S 7 11 29.91 1013 10 16.0934 0 0
12:51 pm 12:51 Sunny 94 34.4 60 15.6 32 32 S 9 15 29.88 1012 10 16.0934 0 0
1:51 pm 13:51 Sunny 95 35 58 14.4 29 29 VRB 6 9 29.85 1011 10 16.0934 0 0
2:51 pm 14:51 Sunny 98 36.7 54 12.2 23 23 SSW 8 13 29.8 1009 10 16.0934 0 0
3:51 pm 15:51 Sunny 100 37.8 50 10 18 18 SSE 14 22 29.77 1008 10 16.0934 0 0
4:51 pm 16:51 Mostly Cloudy 98 36.7 52 11.1 21 21 S 14 22 29.77 1008 10 16.0934 0 0
5:51 pm 17:51 Sunny 94 34.4 48 8.9 21 21 SSE 5 7 29.78 1009 10 16.0934 0 0
6:51 pm 18:51 Clear 89 31.7 51 10.6 27 27 W 5 7 29.8 1009 10 16.0934 0 0
7:51 pm 19:51 Clear 85 29.4 54 12.2 35 35 WNW 3 6 29.83 1010 10 16.0934 0 0
8:51 pm 20:51 Clear 83 28.3 52 11.1 34 34 NNW 5 7 29.86 1011 10 16.0934 0 0
9:51 pm 21:51 Clear 78 25.6 54 12.2 43 43 SE 3 6 29.88 1012 10 16.0934 0 0
10:51 pm 22:51 Clear 75 23.9 56 13.3 52 52 Calm 29.88 1012 10 16.0934 0 0
11:51 pm 23:51 Clear 76 24.4 55 12.8 48 48 Calm 29.88 1012 10 16.0934 0 0

Powered by AerisWeather